ARIANE 5 R/B, 41030

Orbit data source: Space-Track

ARIANE 5 R/B, 41030 is space debris in HEO originally from a launch on Tue, 10 Nov 2015 UTC launched from the French Guiana (FRGUI). Debris objects in space refer to the collection of defunct objects orbiting the Earth. Examples of debris include non-operational satellites, rocket bodies, and fragments generated from explosions, collisions, or faulty payload assembly.

Loading next visibility...
Identifier
41030, 2015-065C
Orbit
HEO
Last TLE update
19 hours ago
Origin
Manufacturer
Airbus Safran
Mission
Spacecraft
Bus & Motor
ESC-A, Unknown motor
Mass
~5,000 kg wet, ~5,000 kg dry
Launch date (UTC)
2015-11-10 (10 years ago)
Launch vehicle
Unknown
Launch site
French Guiana (FRGUI)
Object type
Payload
Rocket body
Debris
Shape & HBR
Cyl + 1 Nozzle, 7 m
Radar Cross Section
41.627 m², Large (>1 m²)

Expand to show TLE details & history

TLE from 19 hours ago
0 ARIANE 5 R/B
1 41030U 15065C   25181.62133811  .00017348  00000-0  16050-2 0  9994
2 41030   4.3656  83.7764 7089366  11.8695 358.5798  2.54986029 83672
Epoch: 2025-06-30T14:54Z
TLE epoch observation values (Epoch: 2025-06-30T14:54:43.612Z)
Latitude
-0.00025°
Longitude
-58.85919°
Altitude
248.914 km
Speed
10.132 km/s
True Right ascension
05h 35m 00s
True Declination
0° 00' 01"
Sunlit
Object was in daylight at epoch
Visualization orbit readout
Latitude
2.51872°
Longitude
-24.44671°
Altitude
399.316 km
Speed
10 km/s
Apparent Right ascension
08h 32m 59s
Apparent Declination
-18° 17' 31"
Sunlit
Object is in daylight
Visualization observer readout
Local Sidereal Time
21:28:59
Azimuth
33.251° NE
Elevation
-65.228°
Doppler factor
1
Orbital elements
Apogee altitude
32,308.056 km
Perigee altitude
210.835 km
Semi-major axis
22,637.582 km
Eccentricity
0.70894
Inclination
4.3656°
RAAN
83.7764°
Arg. of periapsis
11.8695°
True anomaly
Unknown
Mean anomaly
358.5798°
Eccentric anomaly
Unknown
Mean motion
0.63723 °/min
Orbital period
564.94 mins
BSTAR
0.001605
Loading maneuver chart data...
Loading SW <> Apogee altitude chart data...
Loading historical data...
Loading historical data...
Loading historical data...
Loading historical data...
Loading historical data...
Loading historical data...
Loading historical data...
Other satellites on launch #65 in the year 2015 (2015-11-10 UTC)

ARIANE 5 R/B Visibility forecast

Observer location: undefined°, undefined°

Span
Click to sort rows by Start time (UTC) header in descending order
Start Az.
Max El. time (UTC)
Max El. Az.
Max El.
End time (UTC)
End Az.
273 mins2025-07-02 05:17:38.673Z241.24° WSW2025-07-02 07:03:38.673Z220.377° SW29.048°2025-07-02 09:50:38.673Z233.234° WSW
|